ASIASAT 8 (AMOS-7)

Last updated on Sat Jun 21 2025 00:02:44 GMT+0000 (Coordinated Universal Time)

1 40107U 14046A 25171.58261453 -.00000322 00000+0 00000+0 0 9993 2 40107 0.0113 301.3158 0001295 132.3273 150.4491 1.00270673 98522
UTC large
Height (km)
Speed (km/s)
/
Latitude / Longitude
Inclination (degrees)
Orbital Period (minutes)
Azimuth
Elevation
Range (km)
Doppler Factor

Next 0 passes for location: London (51.5072 / 0.1276)

Sorry there are no passes over London.